Regional Weather Roundup
Issued by NWS Mt. Holly, NJ

Home | Current Version | Previous Version | Text Only | Print | Product List | Glossary On
Versions: 1 2 3 4 5 6 7 8 9 10 11 12 13 14 15 16 17 18 19 20 21 22 23 24 25 26 27 28
000
ASUS41 KPHI 191912
RWRPHI

REGIONAL WEATHER ROUNDUP
NATIONAL WEATHER SERVICE MOUNT HOLLY NJ
300 PM EDT SAT AUG 19 2017

NOTE:  "FAIR" INDICATES FEW OR NO CLOUDS BELOW 12,000 FEET WITH NO
SIGNIFICANT WEATHER AND/OR OBSTRUCTIONS TO VISIBILITY.

 * = STATION DOES NOT REPORT PRECIPITATION (E.G. RAIN, SNOW, ETC.)
        OR FOG.

NJZ015>026-192000-
SOUTHERN NEW JERSEY

CITY           SKY/WX    TMP DP  RH WIND       PRES   REMARKS
POMONA         MOSUNNY   88  67  49 W9        29.87F HX  91
WILDWOOD*      SUNNY     84  70  62 NW5       29.90S
MILLVILLE      SUNNY     87  68  52 NW10      29.88F HX  90
WRIGHTSTOWN    MOSUNNY   87  64  47 W13       29.84F
MOUNT HOLLY    MOSUNNY   86  63  45 W8        29.86F
TRENTON        MOSUNNY   85  65  51 NW7       29.87F

$$
NJZ001>014-192000-
NORTHERN NEW JERSEY

CITY           SKY/WX    TMP DP  RH WIND       PRES   REMARKS
SUSSEX         MOSUNNY   83  65  54 VRB6      29.86F
ANDOVER*         N/A     82  64  54 S7        29.87F
MORRISTOWN     MOSUNNY   84  64  51 W10G20    29.86F
NEWARK         MOSUNNY   88  63  43 W12G20    29.84F
TETERBORO      MOSUNNY   86  63  45 W9G17     29.82F
CALDWELL       PTSUNNY   85  65  51 W8        29.85F
SOMERVILLE     MOSUNNY   86  66  51 NW8       29.85F
ALLAIRE*       MOSUNNY   87  66  49 W12       29.87F
TOMS RIVER*    MOSUNNY   88  66  48 W13       29.87F HX  90

$$
PAZ043-044-047-054-055-060>062-066>071-192000-
EASTERN PENNSYLVANIA

CITY           SKY/WX    TMP DP  RH WIND       PRES   REMARKS
PHILADELPHIA   MOSUNNY   87  62  43 W6        29.88F
NORTH PHILA    SUNNY     88  65  46 W6        29.89F HX  90
BLUE BELL*     MOSUNNY   82  64  54 W7        29.90S
DOYLESTOWN     SUNNY     84  64  50 W8        29.88F
QUAKERTOWN*    MOSUNNY   84  64  51 W6        29.90F
PERKASIE*      FAIR      82  64  54 W6        29.91S
POTTSTOWN      MOSUNNY   84  64  50 SW9       29.90F
LANCASTER      MOSUNNY   85  66  53 VRB7      29.90F
COATESVILLE    SUNNY     82  64  54 NW8       29.92F
READING        MOSUNNY   86  67  52 NW9       29.88F
ALLENTOWN      SUNNY     83  64  52 W8        29.88F
MOUNT POCONO     N/A     75  61  61 W10       29.94F
HAZLETON         N/A     82  63  51 W5        29.97S
LEHIGHTON      FAIR      82  63  51 NW3       29.89F
WILKES BARRE   MOSUNNY   82  64  54 W12       29.89F

$$
DEZALL-MDZ008-012-015-019-020-192000-
DELAWARE AND EASTERN MARYLAND

CITY           SKY/WX    TMP DP  RH WIND       PRES   REMARKS
WILMINGTON     MOSUNNY   86  67  52 NW8       29.90S
DOVER          SUNNY     86  63  45 W9        29.90R
GEORGETOWN     MOSUNNY   88  68  51 NW6       29.90F HX  91
ABERDEEN       MOSUNNY   86  67  53 W8        29.90F
PATUXENT       MOSUNNY   85  71  63 E7        29.91F HX  90
OCEAN CITY     MOSUNNY   84  76  76 SE6       29.91F HX  93
WALLOPS ISLAND PTSUNNY   86  70  58 N6        29.90F HX  90
CAMBRIDGE      SUNNY     86  66  51 NW7       29.91F
SALISBURY      PTSUNNY   86  69  56 NW5       29.90F HX  90

$$
PAZ001-021-NYZ056-072-MDZ011-DCZ001-192000-
OTHER NEARBY LOCATIONS

CITY           SKY/WX    TMP DP  RH WIND       PRES   REMARKS
HARRISBURG     PTSUNNY   85  67  54 W5        29.88F
STATE COLLEGE  PTSUNNY   79  63  57 W14       29.92S
WILLIAMSPORT   PTSUNNY   83  64  52 W9        29.87S
BINGHAMTON     MOSUNNY   73  60  63 SW12G20   29.90F
NEW YORK CITY  MOSUNNY   85  63  47 VRB5      29.86F
BALTIMORE      MOSUNNY   87  67  51 SW5       29.89F HX  90
WASHINGTON DC  MOSUNNY   88  69  53 VRB7      29.91F HX  92

$$




USA.gov is the U.S. government's official web portal to all federal, state and local government web resources and services.